EW4052 Weather Reports


time (UTC)temp
C
wind
direction
speed
KPH
gust
KPH
rain 1hr
cm
rain 24hr
cm
rain mn
cm
humidity
%
barometer
mb
20260510150012 13 226 6.4 24.1 0.00 0.00 0.00 37 1019.2
20260510144519 13 240 9.7 17.7 0.00 0.00 0.00 39 1019.2
20260510143005 12 248 3.2 16.1 0.00 0.00 0.00 38 1019.3
20260510141501 12 245 9.7 14.5 0.00 0.00 0.00 41 1019.4
20260510140057 11 227 6.4 17.7 0.00 0.00 0.00 44 1019.5
20260510134552 10 229 6.4 12.9 0.00 0.00 0.00 47 1019.5
20260510133047 9 240 3.2 9.7 0.00 0.00 0.00 49 1019.5
20260510131546 8 235 3.2 8.0 0.00 0.00 0.00 59 1019.4
20260510130045 8 232 0.0 8.0 0.00 0.00 0.00 54 1019.3
20260510124546 7 233 0.0 6.4 0.00 0.00 0.00 56 1019.3
20260510123042 7 231 8.0 12.9 0.00 0.00 0.00 58 1019.1
20260510121542 7 234 0.0 9.7 0.00 0.00 0.00 61 1019.0
20260510120039 6 232 8.0 12.9 0.00 0.00 0.00 62 1018.9
20260510114537 5 225 3.2 8.0 0.00 0.00 0.00 62 1018.7
20260510113035 4 225 0.0 3.2 0.00 0.00 0.00 59 1018.5
20260510111543 4 225 0.0 4.8 0.00 0.00 0.00 58 1018.4
20260510110038 4 223 0.0 4.8 0.00 0.00 0.00 58 1018.3
20260510104541 4 222 0.0 6.4 0.00 0.00 0.00 57 1018.3
20260510103029 3 212 0.0 6.4 0.00 0.00 0.00 58 1018.1
20260510101528 3 203 0.0 6.4 0.00 0.00 0.00 59 1018.1
20260510100026 3 215 0.0 6.4 0.00 0.00 0.00 60 1018.0
20260510094523 3 271 0.0 0.0 0.00 0.00 0.00 58 1017.7
20260510093020 4 271 0.0 0.0 0.00 0.00 0.00 59 1017.5
20260510091525 4 271 0.0 0.0 0.00 0.00 0.00 58 1017.5
20260510090017 4 271 0.0 0.0 0.00 0.00 0.00 57 1017.1
20260510084534 5 271 0.0 0.0 0.00 0.00 0.00 58 1017.1
20260510083012 5 271 0.0 0.0 0.00 0.00 0.00 57 1016.9
20260510081516 6 271 0.0 0.0 0.00 0.00 0.00 55 1016.8
20260510080004 7 273 3.2 6.4 0.00 0.00 0.00 54 1016.5
20260510074502 8 274 4.8 9.7 0.00 0.00 0.00 53 1016.4
20260510073059 7 275 4.8 9.7 0.00 0.00 0.00 54 1016.1
20260510071557 8 268 4.8 9.7 0.00 0.00 0.00 52 1016.0
20260510070055 8 265 4.8 9.7 0.00 0.00 0.00 52 1016.1
20260510064553 8 265 4.8 9.7 0.00 0.00 0.00 52 1016.1
20260510063051 8 267 4.8 9.7 0.00 0.00 0.00 51 1016.0
20260510061601 8 271 6.4 9.7 0.00 0.00 0.00 49 1015.8
20260510060048 9 275 6.4 11.3 0.00 0.00 0.00 50 1015.7
20260510054543 9 261 6.4 11.3 0.00 0.00 0.00 50 1015.6
20260510053044 9 260 4.8 9.7 0.00 0.00 0.00 49 1015.4
20260510051541 9 263 0.0 9.7 0.00 0.00 0.00 47 1015.3
20260510050034 9 263 3.2 12.9 0.00 0.00 0.00 47 1015.0
20260510044531 9 265 8.0 16.1 0.00 0.00 0.00 46 1014.9
20260510043030 10 273 8.0 16.1 0.00 0.00 0.00 47 1014.7
20260510041534 10 276 12.9 16.1 0.00 0.00 0.00 46 1014.6
20260510040027 10 267 9.7 16.1 0.00 0.00 0.00 47 1014.4
20260510034527 10 268 11.3 17.7 0.00 0.00 0.00 45 1014.1
20260510033023 10 271 8.0 14.5 0.00 0.00 0.00 44 1014.0
20260510031521 11 272 4.8 11.3 0.00 0.00 0.00 44 1013.8
20260510030021 11 267 4.8 12.9 0.00 0.00 0.00 43 1013.6
20260510024526 11 266 4.8 12.9 0.00 0.00 0.00 44 1013.5
20260510023014 12 265 8.0 14.5 0.00 0.00 0.00 41 1013.2
20260510021514 12 270 9.7 17.7 0.00 0.00 0.00 40 1012.8
20260510020011 12 268 8.0 16.1 0.00 0.00 0.00 41 1012.4
20260510014506 13 270 11.3 17.7 0.00 0.00 0.00 37 1012.0
20260510013003 13 298 11.3 22.5 0.00 0.00 0.00 39 1011.5
20260510011601 13 282 14.5 20.9 0.00 0.00 0.00 37 1011.2
20260510010058 14 281 16.1 22.5 0.00 0.00 0.00 35 1011.0
20260510004557 15 273 19.3 25.7 0.00 0.00 0.00 36 1010.7
20260510003055 15 268 20.9 30.6 0.00 0.00 0.00 35 1010.4
20260510001554 16 306 19.3 29.0 0.00 0.00 0.00 34 1010.2
20260510000051 16 296 19.3 33.8 0.00 0.00 0.00 34 1009.9
20260509234548 16 271 16.1 32.2 0.00 0.00 0.00 35 1009.8
20260509233047 16 293 19.3 29.0 0.00 0.00 0.00 33 1009.6
20260509231554 16 288 20.9 30.6 0.00 0.00 0.00 33 1009.4
20260509230044 16 276 22.5 41.8 0.00 0.00 0.00 35 1009.4
20260509224543 17 286 22.5 32.2 0.00 0.00 0.00 36 1009.2
20260509223042 17 269 22.5 37.0 0.00 0.00 0.00 33 1009.0
20260509221539 17 294 22.5 37.0 0.00 0.00 0.00 36 1008.8
20260509220040 17 287 16.1 30.6 0.00 0.00 0.00 33 1008.6
20260509214537 17 260 24.1 33.8 0.00 0.00 0.00 32 1008.5
20260509213036 17 274 25.7 38.6 0.00 0.00 0.00 33 1008.3
20260509211539 18 284 22.5 37.0 0.00 0.00 0.00 34 1008.3
20260509210038 17 279 25.7 35.4 0.00 0.00 0.00 34 1008.1
20260509204531 17 275 20.9 37.0 0.00 0.00 0.00 36 1008.0
20260509203031 17 261 24.1 32.2 0.00 0.00 0.00 35 1007.9
20260509201529 17 269 24.1 38.6 0.00 0.00 0.00 35 1007.8
20260509200026 17 292 22.5 40.2 0.00 0.00 0.00 38 1007.7
20260509194528 17 317 24.1 40.2 0.00 0.00 0.00 38 1007.5
20260509193023 17 281 22.5 38.6 0.00 0.00 0.00 37 1007.5
20260509191523 17 247 20.9 35.4 0.00 0.00 0.00 39 1007.5
20260509190020 17 291 20.9 35.4 0.00 0.00 0.00 43 1007.2
20260509184531 17 262 29.0 38.6 0.00 0.00 0.00 42 1007.1
20260509183018 17 306 19.3 37.0 0.00 0.00 0.00 43 1007.0
20260509181517 17 250 17.7 29.0 0.00 0.00 0.00 46 1007.0
20260509180015 16 284 12.9 32.2 0.00 0.00 0.00 47 1006.7
20260509174513 16 272 24.1 37.0 0.00 0.00 0.00 48 1006.7
20260509173010 16 279 22.5 37.0 0.00 0.00 0.00 48 1006.6
20260509171511 16 284 14.5 37.0 0.00 0.00 0.00 53 1006.7
20260509170007 15 266 25.7 38.6 0.00 0.00 0.00 54 1006.6
20260509164503 15 266 29.0 35.4 0.00 0.00 0.00 57 1006.4
20260509163001 15 242 24.1 38.6 0.00 0.00 0.00 57 1006.3
20260509161602 15 273 20.9 30.6 0.00 0.00 0.00 62 1006.2
20260509160059 14 259 25.7 37.0 0.00 0.00 0.00 62 1006.0
20260509154558 14 285 25.7 32.2 0.00 0.00 0.00 63 1005.8
20260509153058 13 270 20.9 35.4 0.00 0.00 0.00 65 1005.8
20260509151655 13 271 20.9 37.0 0.00 0.00 0.00 65 1005.7